Simultaneous Nadir Overpasses (SNOs) Predictions

Prediction of SNOs between LANDSAT-8 and METOP-B Satellite Orbit:

Table of predicted SNOs for the next 14.0 days since TLE Epoch: 2/16/2019
Index Date (LANDSAT-8) Time (LANDSAT-8) Lat,Lon (LANDSAT-8) SZA (LANDSAT-8 ) Date (METOP-B) Time (METOP-B) Lat,Lon (METOP-B) SZA (METOP-B ) Distance(km) Time Diff (sec)
1 02/16/2019 14:50:00 81.07, -3.71 94.92 02/16/2019 14:48:51 81.07, -3.83 94.88 2.04 69
2 02/16/2019 15:39:25 -81.11, 164.58 85.01 02/16/2019 15:39:29 -81.11, 164.69 85.00 1.88 4
3 02/19/2019 10:24:13 81.08, 62.94 93.97 02/19/2019 10:23:13 81.08, 63.04 93.96 1.73 60
4 02/19/2019 11:13:39 -81.10,-129.12 86.01 02/19/2019 11:13:53 -81.10,-129.19 86.01 1.34 14
5 02/22/2019 05:58:27 81.09, 129.55 92.99 02/22/2019 05:57:37 81.09, 129.51 92.96 0.86 50
6 02/22/2019 06:47:53 -81.11, -62.48 86.98 02/22/2019 06:48:16 -81.12, -62.34 86.96 2.55 23
7 02/25/2019 01:32:42 81.08,-164.23 91.93 02/25/2019 01:32:02 81.08,-164.39 91.90 2.74 40
8 02/25/2019 02:22:08 -81.10, 3.75 88.03 02/25/2019 02:22:41 -81.11, 3.76 88.02 0.54 33
9 02/27/2019 21:06:55 81.08, -97.69 90.91 02/27/2019 21:06:24 81.09, -97.55 90.92 2.41 31




NCC Satellite Simultaneous Nadir Overpasses (SNOs) Prediction Service
